User: anonymous   Login
Location: Burera
(21.3780°N, 81.9534°E)
Time: 11:31:28
(UTC+00:00)
Language:

HJ-1C - Orbit

View from above orbital plane
View from above orbital plane
View from above satellite
View from above satellite

Ground track
Ground track

The orbit data is extracted from the following two-line orbital elements,

1 38997U 12064A   20297.08923427  .00002372  00000-0  56085-4 0  9996
2 38997  97.1444 324.8041 0007672 261.7029 174.3740 15.42786113445465
Epoch (UTC): 23 October 2020 02:08:29
Eccentricity: 0.0007672
inclination: 97.1444°
perigee height: 432 km
apogee height: 443 km
right ascension of ascending node: 324.8041°
argument of perigee: 261.7029°
revolutions per day: 15.42786113
mean anomaly at epoch: 174.3740°
orbit number at epoch: 44546

The dashed part of the orbit path shows where the satellite is in the earth's shadow,  

DLR